Year,Month,Day,Hour,Minute,Value (Times are PST for temperature in C)
2019,06,26,00,00,13.30
2019,06,26,00,01,13.30
2019,06,26,00,02,13.30
2019,06,26,00,03,13.30
2019,06,26,00,04,13.20
2019,06,26,00,05,13.20
2019,06,26,00,06,13.20
2019,06,26,00,07,13.20
2019,06,26,00,08,13.20
2019,06,26,00,09,13.10
2019,06,26,00,10,13.10
2019,06,26,00,11,13.10
2019,06,26,00,12,13.10
2019,06,26,00,13,13.10
2019,06,26,00,14,13.00
2019,06,26,00,15,13.00
2019,06,26,00,16,13.00
2019,06,26,00,17,13.00
2019,06,26,00,18,13.00
2019,06,26,00,19,13.00
2019,06,26,00,20,13.00
2019,06,26,00,21,12.90
2019,06,26,00,22,12.90
2019,06,26,00,23,12.90
2019,06,26,00,24,12.90
2019,06,26,00,25,12.90
2019,06,26,00,26,12.90
2019,06,26,00,27,12.80
2019,06,26,00,28,12.80
2019,06,26,00,29,12.80
2019,06,26,00,30,12.80
2019,06,26,00,31,12.80
2019,06,26,00,32,12.70
2019,06,26,00,33,12.70
2019,06,26,00,34,12.70
2019,06,26,00,35,12.70
2019,06,26,00,36,12.70
2019,06,26,00,37,12.70
2019,06,26,00,38,12.70
2019,06,26,00,39,12.70
2019,06,26,00,40,12.70
2019,06,26,00,41,12.70
2019,06,26,00,42,12.70
2019,06,26,00,43,12.70
2019,06,26,00,44,12.70
2019,06,26,00,45,12.70
2019,06,26,00,46,12.60
2019,06,26,00,47,12.60
2019,06,26,00,48,12.60
2019,06,26,00,49,12.60
2019,06,26,00,50,12.60
2019,06,26,00,51,12.60
2019,06,26,00,52,12.60
2019,06,26,00,53,12.60
2019,06,26,00,54,12.60
2019,06,26,00,55,12.60
2019,06,26,00,56,12.60
2019,06,26,00,57,12.60
2019,06,26,00,58,12.60
2019,06,26,00,59,12.60
2019,06,26,01,00,12.60
2019,06,26,01,01,12.50
2019,06,26,01,02,12.50
2019,06,26,01,03,12.50
2019,06,26,01,04,12.50
2019,06,26,01,05,12.50
2019,06,26,01,06,12.40
2019,06,26,01,07,12.40
2019,06,26,01,08,12.40
2019,06,26,01,09,12.40
2019,06,26,01,10,12.40
2019,06,26,01,11,12.40
2019,06,26,01,12,12.30
2019,06,26,01,13,12.30
2019,06,26,01,14,12.30
2019,06,26,01,15,12.30
2019,06,26,01,16,12.30
2019,06,26,01,17,12.30
2019,06,26,01,18,12.30
2019,06,26,01,19,12.30
2019,06,26,01,20,12.30
2019,06,26,01,21,12.30
2019,06,26,01,22,12.30
2019,06,26,01,23,12.20
2019,06,26,01,24,12.20
2019,06,26,01,25,12.20
2019,06,26,01,26,12.20
2019,06,26,01,27,12.20
2019,06,26,01,28,12.20
2019,06,26,01,29,12.20
2019,06,26,01,30,12.20
2019,06,26,01,31,12.20
2019,06,26,01,32,12.20
2019,06,26,01,33,12.20
2019,06,26,01,34,12.20
2019,06,26,01,35,12.20
2019,06,26,01,36,12.20
2019,06,26,01,37,12.20
2019,06,26,01,38,12.20
2019,06,26,01,39,12.10
2019,06,26,01,40,12.10
2019,06,26,01,41,12.10
2019,06,26,01,42,12.10
2019,06,26,01,43,12.10
2019,06,26,01,44,12.10
2019,06,26,01,45,12.10
2019,06,26,01,46,12.10
2019,06,26,01,47,12.10
2019,06,26,01,48,12.10
2019,06,26,01,49,12.10
2019,06,26,01,50,12.10
2019,06,26,01,51,12.10
2019,06,26,01,52,12.10
2019,06,26,01,53,12.10
2019,06,26,01,54,12.10
2019,06,26,01,55,12.10
2019,06,26,01,56,12.10
2019,06,26,01,57,12.10
2019,06,26,01,58,12.10
2019,06,26,01,59,12.10
2019,06,26,02,00,12.00
2019,06,26,02,01,12.00
2019,06,26,02,02,12.00
2019,06,26,02,03,12.00
2019,06,26,02,04,12.00
2019,06,26,02,05,12.00
2019,06,26,02,06,12.00
2019,06,26,02,07,12.00
2019,06,26,02,08,12.00
2019,06,26,02,09,12.00
2019,06,26,02,10,12.00
2019,06,26,02,11,12.00
2019,06,26,02,12,12.00
2019,06,26,02,13,12.00
2019,06,26,02,14,12.00
2019,06,26,02,15,12.00
2019,06,26,02,16,12.00
2019,06,26,02,17,12.00
2019,06,26,02,18,11.90
2019,06,26,02,19,11.90
2019,06,26,02,20,11.90
2019,06,26,02,21,11.90
2019,06,26,02,22,11.90
2019,06,26,02,23,11.90
2019,06,26,02,24,11.90
2019,06,26,02,25,11.90
2019,06,26,02,26,11.90
2019,06,26,02,27,11.90
2019,06,26,02,28,11.90
2019,06,26,02,29,11.90
2019,06,26,02,30,11.90
2019,06,26,02,31,11.90
2019,06,26,02,32,11.90
2019,06,26,02,33,11.90
2019,06,26,02,34,11.90
2019,06,26,02,35,11.90
2019,06,26,02,36,11.90
2019,06,26,02,37,11.90
2019,06,26,02,38,11.90
2019,06,26,02,39,11.80
2019,06,26,02,40,11.80
2019,06,26,02,41,11.90
2019,06,26,02,42,11.90
2019,06,26,02,43,11.80
2019,06,26,02,44,11.80
2019,06,26,02,45,11.80
2019,06,26,02,46,11.80
2019,06,26,02,47,11.80
2019,06,26,02,48,11.80
2019,06,26,02,49,11.80
2019,06,26,02,50,11.80
2019,06,26,02,51,11.80
2019,06,26,02,52,11.80
2019,06,26,02,53,11.80
2019,06,26,02,54,11.80
2019,06,26,02,55,11.80
2019,06,26,02,56,11.70
2019,06,26,02,57,11.70
2019,06,26,02,58,11.70
2019,06,26,02,59,11.70
2019,06,26,03,00,11.70
2019,06,26,03,01,11.70
2019,06,26,03,02,11.60
2019,06,26,03,03,11.60
2019,06,26,03,04,11.60
2019,06,26,03,05,11.60
2019,06,26,03,06,11.60
2019,06,26,03,07,11.60
2019,06,26,03,08,11.60
2019,06,26,03,09,11.60
2019,06,26,03,10,11.60
2019,06,26,03,11,11.60
2019,06,26,03,12,11.50
2019,06,26,03,13,11.50
2019,06,26,03,14,11.50
2019,06,26,03,15,11.40
2019,06,26,03,16,11.40
2019,06,26,03,17,11.40
2019,06,26,03,18,11.40
2019,06,26,03,19,11.40
2019,06,26,03,20,11.40
2019,06,26,03,21,11.30
2019,06,26,03,22,11.30
2019,06,26,03,23,11.30
2019,06,26,03,24,11.30
2019,06,26,03,25,11.30
2019,06,26,03,26,11.30
2019,06,26,03,27,11.30
2019,06,26,03,28,11.30
2019,06,26,03,29,11.30
2019,06,26,03,30,11.30
2019,06,26,03,31,11.30
2019,06,26,03,32,11.30
2019,06,26,03,33,11.30
2019,06,26,03,34,11.30
2019,06,26,03,35,11.20
2019,06,26,03,36,11.20
2019,06,26,03,37,11.20
2019,06,26,03,38,11.20
2019,06,26,03,39,11.20
2019,06,26,03,40,11.10
2019,06,26,03,41,11.10
2019,06,26,03,42,11.10
2019,06,26,03,43,11.10
2019,06,26,03,44,11.00
2019,06,26,03,45,11.00
2019,06,26,03,46,11.00
2019,06,26,03,47,11.00
2019,06,26,03,48,11.00
2019,06,26,03,49,11.00
2019,06,26,03,50,11.00
2019,06,26,03,51,10.90
2019,06,26,03,52,10.90
2019,06,26,03,53,10.90
2019,06,26,03,54,10.90
2019,06,26,03,55,10.90
2019,06,26,03,56,10.90
2019,06,26,03,57,10.90
2019,06,26,03,58,10.90
2019,06,26,03,59,10.90
2019,06,26,04,00,10.90
2019,06,26,04,01,10.90
2019,06,26,04,02,10.90
2019,06,26,04,03,10.90
2019,06,26,04,04,10.90
2019,06,26,04,05,10.90
2019,06,26,04,06,10.90
2019,06,26,04,07,10.80
2019,06,26,04,08,10.80
2019,06,26,04,09,10.80
2019,06,26,04,10,10.80
2019,06,26,04,11,10.80
2019,06,26,04,12,10.80
2019,06,26,04,13,10.80
2019,06,26,04,14,10.80
2019,06,26,04,15,10.80
2019,06,26,04,16,10.70
2019,06,26,04,17,10.70
2019,06,26,04,18,10.70
2019,06,26,04,19,10.70
2019,06,26,04,20,10.70
2019,06,26,04,21,10.70
2019,06,26,04,22,10.70
2019,06,26,04,23,10.70
2019,06,26,04,24,10.60
2019,06,26,04,25,10.60
2019,06,26,04,26,10.60
2019,06,26,04,27,10.60
2019,06,26,04,28,10.60
2019,06,26,04,29,10.60
2019,06,26,04,30,10.60
2019,06,26,04,31,10.60
2019,06,26,04,32,10.60
2019,06,26,04,33,10.60
2019,06,26,04,34,10.60
2019,06,26,04,35,10.60
2019,06,26,04,36,10.60
2019,06,26,04,37,10.60
2019,06,26,04,38,10.60
2019,06,26,04,39,10.60
2019,06,26,04,40,10.60
2019,06,26,04,41,10.60
2019,06,26,04,42,10.60
2019,06,26,04,43,10.60
2019,06,26,04,44,10.60
2019,06,26,04,45,10.60
2019,06,26,04,46,10.60
2019,06,26,04,47,10.60
2019,06,26,04,48,10.60
2019,06,26,04,49,10.60
2019,06,26,04,50,10.60
2019,06,26,04,51,10.60
2019,06,26,04,52,10.60
2019,06,26,04,53,10.60
2019,06,26,04,54,10.60
2019,06,26,04,55,10.60
2019,06,26,04,56,10.60
2019,06,26,04,57,10.60
2019,06,26,04,58,10.60
2019,06,26,04,59,10.60
2019,06,26,05,00,10.60
2019,06,26,05,01,10.60
2019,06,26,05,02,10.60
2019,06,26,05,03,10.60
2019,06,26,05,04,10.60
2019,06,26,05,05,10.60
2019,06,26,05,06,10.50
2019,06,26,05,07,10.60
2019,06,26,05,08,10.50
2019,06,26,05,09,10.50
2019,06,26,05,10,10.50
2019,06,26,05,11,10.50
2019,06,26,05,12,10.50
2019,06,26,05,13,10.50
2019,06,26,05,14,10.50
2019,06,26,05,15,10.50
2019,06,26,05,16,10.50
2019,06,26,05,17,10.50
2019,06,26,05,18,10.50
2019,06,26,05,19,10.50
2019,06,26,05,20,10.50
2019,06,26,05,21,10.50
2019,06,26,05,22,10.50
2019,06,26,05,23,10.50
2019,06,26,05,24,10.50
2019,06,26,05,25,10.50
2019,06,26,05,26,10.50
2019,06,26,05,27,10.50
2019,06,26,05,28,10.50
2019,06,26,05,29,10.50
2019,06,26,05,30,10.60
2019,06,26,05,31,10.60
2019,06,26,05,32,10.60
2019,06,26,05,33,10.50
2019,06,26,05,34,10.60
2019,06,26,05,35,10.60
2019,06,26,05,36,10.60
2019,06,26,05,37,10.50
2019,06,26,05,38,10.50
2019,06,26,05,39,10.50
2019,06,26,05,40,10.50
2019,06,26,05,41,10.50
2019,06,26,05,42,10.50
2019,06,26,05,43,10.50
2019,06,26,05,44,10.50
2019,06,26,05,45,10.50
2019,06,26,05,46,10.50
2019,06,26,05,47,10.50
2019,06,26,05,48,10.50
2019,06,26,05,49,10.50
2019,06,26,05,50,10.50
2019,06,26,05,51,10.50
2019,06,26,05,52,10.50
2019,06,26,05,53,10.50
2019,06,26,05,54,10.40
2019,06,26,05,55,10.40
2019,06,26,05,56,10.40
2019,06,26,05,57,10.40
2019,06,26,05,58,10.40
2019,06,26,05,59,10.40
2019,06,26,06,00,10.40
2019,06,26,06,01,10.40
2019,06,26,06,02,10.40
2019,06,26,06,03,10.40
2019,06,26,06,04,10.40
2019,06,26,06,05,10.40
2019,06,26,06,06,10.40
2019,06,26,06,07,10.40
2019,06,26,06,08,10.40
2019,06,26,06,09,10.40
2019,06,26,06,10,10.40
2019,06,26,06,11,10.40
2019,06,26,06,12,10.40
2019,06,26,06,13,10.40
2019,06,26,06,14,10.40
2019,06,26,06,15,10.40
2019,06,26,06,16,10.40
2019,06,26,06,17,10.40
2019,06,26,06,18,10.40
2019,06,26,06,19,10.40
2019,06,26,06,20,10.50
2019,06,26,06,21,10.50
2019,06,26,06,22,10.50
2019,06,26,06,23,10.60
2019,06,26,06,24,10.60
2019,06,26,06,25,10.60
2019,06,26,06,26,10.70
2019,06,26,06,27,10.70
2019,06,26,06,28,10.70
2019,06,26,06,29,10.70
2019,06,26,06,30,10.70
2019,06,26,06,31,10.80
2019,06,26,06,32,10.80
2019,06,26,06,33,10.80
2019,06,26,06,34,10.80
2019,06,26,06,35,10.80
2019,06,26,06,36,10.80
2019,06,26,06,37,10.90
2019,06,26,06,38,10.90
2019,06,26,06,39,10.90
2019,06,26,06,40,10.90
2019,06,26,06,41,10.90
2019,06,26,06,42,10.90
2019,06,26,06,43,10.90
2019,06,26,06,44,10.90
2019,06,26,06,45,10.90
2019,06,26,06,46,10.90
2019,06,26,06,47,11.00
2019,06,26,06,48,11.00
2019,06,26,06,49,11.00
2019,06,26,06,50,11.00
2019,06,26,06,51,11.00
2019,06,26,06,52,11.10
2019,06,26,06,53,11.10
2019,06,26,06,54,11.10
2019,06,26,06,55,11.10
2019,06,26,06,56,11.10
2019,06,26,06,57,11.10
2019,06,26,06,58,11.10
2019,06,26,06,59,11.10
2019,06,26,07,00,11.10
2019,06,26,07,01,11.10
2019,06,26,07,02,11.10
2019,06,26,07,03,11.20
2019,06,26,07,04,11.20
2019,06,26,07,05,11.20
2019,06,26,07,06,11.20
2019,06,26,07,07,11.20
2019,06,26,07,08,11.20
2019,06,26,07,09,11.30
2019,06,26,07,10,11.30
2019,06,26,07,11,11.30
2019,06,26,07,12,11.30
2019,06,26,07,13,11.30
2019,06,26,07,14,11.30
2019,06,26,07,15,11.30
2019,06,26,07,16,11.30
2019,06,26,07,17,11.30
2019,06,26,07,18,11.30
2019,06,26,07,19,11.40
2019,06,26,07,20,11.40
2019,06,26,07,21,11.40
2019,06,26,07,22,11.40
2019,06,26,07,23,11.40
2019,06,26,07,24,11.40
2019,06,26,07,25,11.40
2019,06,26,07,26,11.50
2019,06,26,07,27,11.50
2019,06,26,07,28,11.50
2019,06,26,07,29,11.60
2019,06,26,07,30,11.60
2019,06,26,07,31,11.60
2019,06,26,07,32,11.60
2019,06,26,07,33,11.70
2019,06,26,07,34,11.70
2019,06,26,07,35,11.70
2019,06,26,07,36,11.70
2019,06,26,07,37,11.80
2019,06,26,07,38,11.80
2019,06,26,07,39,11.80
2019,06,26,07,40,11.80
2019,06,26,07,41,11.90
2019,06,26,07,42,11.90
2019,06,26,07,43,11.90
2019,06,26,07,44,12.00
2019,06,26,07,45,12.00
2019,06,26,07,46,12.00
2019,06,26,07,47,12.10
2019,06,26,07,48,12.10
2019,06,26,07,49,12.10
2019,06,26,07,50,12.10
2019,06,26,07,51,12.20
2019,06,26,07,52,12.20
2019,06,26,07,53,12.20
2019,06,26,07,54,12.20
2019,06,26,07,55,12.20
2019,06,26,07,56,12.30
2019,06,26,07,57,12.30
2019,06,26,07,58,12.30
2019,06,26,07,59,12.30
2019,06,26,08,00,12.30
2019,06,26,08,01,12.30
2019,06,26,08,02,12.30
2019,06,26,08,03,12.30
2019,06,26,08,04,12.40
2019,06,26,08,05,12.40
2019,06,26,08,06,12.40
2019,06,26,08,07,12.40
2019,06,26,08,08,12.40
2019,06,26,08,09,12.40
2019,06,26,08,10,12.40
2019,06,26,08,11,12.50
2019,06,26,08,12,12.50
2019,06,26,08,13,12.50
2019,06,26,08,14,12.50
2019,06,26,08,15,12.60
2019,06,26,08,16,12.60
2019,06,26,08,17,12.60
2019,06,26,08,18,12.60
2019,06,26,08,19,12.60
2019,06,26,08,20,12.60
2019,06,26,08,21,12.60
2019,06,26,08,22,12.70
2019,06,26,08,23,12.70
2019,06,26,08,24,12.70
2019,06,26,08,25,12.80
2019,06,26,08,26,12.80
2019,06,26,08,27,12.80
2019,06,26,08,28,12.90
2019,06,26,08,29,12.90
2019,06,26,08,30,12.90
2019,06,26,08,31,12.90
2019,06,26,08,32,12.90
2019,06,26,08,33,12.90
2019,06,26,08,34,13.00
2019,06,26,08,35,13.00
2019,06,26,08,36,13.00
2019,06,26,08,37,13.00
2019,06,26,08,38,13.00
2019,06,26,08,39,13.00
2019,06,26,08,40,13.00
2019,06,26,08,41,13.00
2019,06,26,08,42,13.10
2019,06,26,08,43,13.10
2019,06,26,08,44,13.10
2019,06,26,08,45,13.20
2019,06,26,08,46,13.20
2019,06,26,08,47,13.20
2019,06,26,08,48,13.20
2019,06,26,08,49,13.20
2019,06,26,08,50,13.30
2019,06,26,08,51,13.30
2019,06,26,08,52,13.30
2019,06,26,08,53,13.30
2019,06,26,08,54,13.40
2019,06,26,08,55,13.40
2019,06,26,08,56,13.40
2019,06,26,08,57,13.40
2019,06,26,08,58,13.40
2019,06,26,08,59,13.40
2019,06,26,09,00,13.40
2019,06,26,09,01,13.40
2019,06,26,09,02,13.50
2019,06,26,09,03,13.50
2019,06,26,09,04,13.60
2019,06,26,09,05,13.60
2019,06,26,09,06,13.70
2019,06,26,09,07,13.70
2019,06,26,09,08,13.80
2019,06,26,09,09,13.80
2019,06,26,09,10,13.90
2019,06,26,09,11,13.90
2019,06,26,09,12,14.00
2019,06,26,09,13,14.00
2019,06,26,09,14,14.10
2019,06,26,09,15,14.20
2019,06,26,09,16,14.20
2019,06,26,09,17,14.20
2019,06,26,09,18,14.20
2019,06,26,09,19,14.30
2019,06,26,09,20,14.20
2019,06,26,09,21,14.30
2019,06,26,09,22,14.20
2019,06,26,09,23,14.20
2019,06,26,09,24,14.30
2019,06,26,09,25,14.30
2019,06,26,09,26,14.30
2019,06,26,09,27,14.30
2019,06,26,09,28,14.30
2019,06,26,09,29,14.40
2019,06,26,09,30,14.50
2019,06,26,09,31,14.50
2019,06,26,09,32,14.60
2019,06,26,09,33,14.70
2019,06,26,09,34,14.70
2019,06,26,09,35,14.80
2019,06,26,09,36,14.80
2019,06,26,09,37,14.80
2019,06,26,09,38,14.80
2019,06,26,09,39,14.90
2019,06,26,09,40,14.90
2019,06,26,09,41,14.90
2019,06,26,09,42,14.90
2019,06,26,09,43,15.00
2019,06,26,09,44,15.10
2019,06,26,09,45,15.10
2019,06,26,09,46,15.20
2019,06,26,09,47,15.20
2019,06,26,09,48,15.20
2019,06,26,09,49,15.20
2019,06,26,09,50,15.20
2019,06,26,09,51,15.30
2019,06,26,09,52,15.40
2019,06,26,09,53,15.40
2019,06,26,09,54,15.50
2019,06,26,09,55,15.60
2019,06,26,09,56,15.70
2019,06,26,09,57,15.80
2019,06,26,09,58,15.80
2019,06,26,09,59,15.80
2019,06,26,10,00,15.90
2019,06,26,10,01,16.00
2019,06,26,10,02,16.10
2019,06,26,10,03,16.20
2019,06,26,10,04,16.30
2019,06,26,10,05,16.40
2019,06,26,10,06,16.40
2019,06,26,10,07,16.40
2019,06,26,10,08,16.40
2019,06,26,10,09,16.40
2019,06,26,10,10,16.40
2019,06,26,10,11,16.40
2019,06,26,10,12,16.50
2019,06,26,10,13,16.40
2019,06,26,10,14,16.40
2019,06,26,10,15,16.50
2019,06,26,10,16,16.50
2019,06,26,10,17,16.60
2019,06,26,10,18,16.60
2019,06,26,10,19,16.60
2019,06,26,10,20,16.70
2019,06,26,10,21,16.70
2019,06,26,10,22,16.70
2019,06,26,10,23,16.70
2019,06,26,10,24,16.70
2019,06,26,10,25,16.70
2019,06,26,10,26,16.80
2019,06,26,10,27,16.90
2019,06,26,10,28,16.90
2019,06,26,10,29,16.90
2019,06,26,10,30,17.00
2019,06,26,10,31,17.00
2019,06,26,10,32,17.00
2019,06,26,10,33,17.10
2019,06,26,10,34,17.10
2019,06,26,10,35,17.20
2019,06,26,10,36,17.20
2019,06,26,10,37,17.20
2019,06,26,10,38,17.20
2019,06,26,10,39,17.30
2019,06,26,10,40,17.30
2019,06,26,10,41,17.40
2019,06,26,10,42,17.50
2019,06,26,10,43,17.50
2019,06,26,10,44,17.50
2019,06,26,10,45,17.50
2019,06,26,10,46,17.50
2019,06,26,10,47,17.60
2019,06,26,10,48,17.60
2019,06,26,10,49,17.60
2019,06,26,10,50,17.70
2019,06,26,10,51,17.80
2019,06,26,10,52,17.80
2019,06,26,10,53,17.90
2019,06,26,10,54,18.00
2019,06,26,10,55,18.10
2019,06,26,10,56,18.10
2019,06,26,10,57,18.20
2019,06,26,10,58,18.20
2019,06,26,10,59,18.20
2019,06,26,11,00,18.20
2019,06,26,11,01,18.20
2019,06,26,11,02,18.10
2019,06,26,11,03,18.20
2019,06,26,11,04,18.20
2019,06,26,11,05,18.20
2019,06,26,11,06,18.20
2019,06,26,11,07,18.20
2019,06,26,11,08,18.20
2019,06,26,11,09,18.30
2019,06,26,11,10,18.40
2019,06,26,11,11,18.60
2019,06,26,11,12,18.70
2019,06,26,11,13,18.80
2019,06,26,11,14,18.90
2019,06,26,11,15,18.90
2019,06,26,11,16,18.90
2019,06,26,11,17,18.80
2019,06,26,11,18,18.80
2019,06,26,11,19,18.90
2019,06,26,11,20,18.90
2019,06,26,11,21,18.90
2019,06,26,11,22,19.00
2019,06,26,11,23,19.00
2019,06,26,11,24,19.00
2019,06,26,11,25,19.10
2019,06,26,11,26,19.10
2019,06,26,11,27,19.20
2019,06,26,11,28,19.20
2019,06,26,11,29,19.10
2019,06,26,11,30,19.10
2019,06,26,11,31,19.10
2019,06,26,11,32,19.10
2019,06,26,11,33,19.00
2019,06,26,11,34,19.10
2019,06,26,11,35,19.10
2019,06,26,11,36,19.10
2019,06,26,11,37,19.20
2019,06,26,11,38,19.20
2019,06,26,11,39,19.20
2019,06,26,11,40,19.20
2019,06,26,11,41,19.10
2019,06,26,11,42,19.00
2019,06,26,11,43,19.00
2019,06,26,11,44,19.00
2019,06,26,11,45,19.00
2019,06,26,11,46,19.00
2019,06,26,11,47,19.10
2019,06,26,11,48,19.10
2019,06,26,11,49,19.10
2019,06,26,11,50,19.20
2019,06,26,11,51,19.20
2019,06,26,11,52,19.20
2019,06,26,11,53,19.30
2019,06,26,11,54,19.30
2019,06,26,11,55,19.50
2019,06,26,11,56,19.60
2019,06,26,11,57,19.70
2019,06,26,11,58,19.80
2019,06,26,11,59,19.80
2019,06,26,12,00,19.90
2019,06,26,12,01,20.00
2019,06,26,12,02,20.20
2019,06,26,12,03,20.30
2019,06,26,12,04,20.40
2019,06,26,12,05,20.50
2019,06,26,12,06,20.60
2019,06,26,12,07,20.60
2019,06,26,12,08,20.60
2019,06,26,12,09,20.70
2019,06,26,12,10,20.70
2019,06,26,12,11,20.80
2019,06,26,12,12,20.80
2019,06,26,12,13,20.80
2019,06,26,12,14,20.80
2019,06,26,12,15,20.90
2019,06,26,12,16,20.90
2019,06,26,12,17,20.90
2019,06,26,12,18,20.90
2019,06,26,12,19,20.90
2019,06,26,12,20,20.80
2019,06,26,12,21,20.80
2019,06,26,12,22,20.80
2019,06,26,12,23,20.80
2019,06,26,12,24,20.80
2019,06,26,12,25,20.80
2019,06,26,12,26,20.90
2019,06,26,12,27,20.90
2019,06,26,12,28,20.90
2019,06,26,12,29,20.90
2019,06,26,12,30,20.90
2019,06,26,12,31,20.90
2019,06,26,12,32,20.90
2019,06,26,12,33,21.00
2019,06,26,12,34,21.00
2019,06,26,12,35,21.10
2019,06,26,12,36,21.10
2019,06,26,12,37,21.00
2019,06,26,12,38,21.00
2019,06,26,12,39,21.00
2019,06,26,12,40,20.90
2019,06,26,12,41,21.00
2019,06,26,12,42,21.00
2019,06,26,12,43,21.10
2019,06,26,12,44,21.10
2019,06,26,12,45,21.00
2019,06,26,12,46,21.00
2019,06,26,12,47,21.00
2019,06,26,12,48,21.00
2019,06,26,12,49,21.00
2019,06,26,12,50,21.00
2019,06,26,12,51,20.90
2019,06,26,12,52,20.90
2019,06,26,12,53,20.90
2019,06,26,12,54,20.80
2019,06,26,12,55,20.80
2019,06,26,12,56,20.80
2019,06,26,12,57,20.80
2019,06,26,12,58,20.80
2019,06,26,12,59,20.80
2019,06,26,13,00,20.80
2019,06,26,13,01,20.80
2019,06,26,13,02,20.80
2019,06,26,13,03,20.80
2019,06,26,13,04,20.80
2019,06,26,13,05,20.70
2019,06,26,13,06,20.70
2019,06,26,13,07,20.70
2019,06,26,13,08,20.80
2019,06,26,13,09,20.80
2019,06,26,13,10,20.90
2019,06,26,13,11,21.00
2019,06,26,13,12,21.10
2019,06,26,13,13,21.20
2019,06,26,13,14,21.20
2019,06,26,13,15,21.10
2019,06,26,13,16,21.10
2019,06,26,13,17,21.10
2019,06,26,13,18,21.10
2019,06,26,13,19,21.10
2019,06,26,13,20,21.10
2019,06,26,13,21,21.10
2019,06,26,13,22,21.10
2019,06,26,13,23,21.10
2019,06,26,13,24,21.10
2019,06,26,13,25,21.10
2019,06,26,13,26,21.10
2019,06,26,13,27,21.10
2019,06,26,13,28,21.00
2019,06,26,13,29,21.00
2019,06,26,13,30,21.00
2019,06,26,13,31,21.00
2019,06,26,13,32,21.00
2019,06,26,13,33,21.00
2019,06,26,13,34,21.00
2019,06,26,13,35,21.00
2019,06,26,13,36,21.00
2019,06,26,13,37,21.00
2019,06,26,13,38,20.90
2019,06,26,13,39,20.90
2019,06,26,13,40,20.90
2019,06,26,13,41,20.90
2019,06,26,13,42,20.90
2019,06,26,13,43,20.80
2019,06,26,13,44,20.80
2019,06,26,13,45,20.80
2019,06,26,13,46,20.80
2019,06,26,13,47,20.90
2019,06,26,13,48,20.90
2019,06,26,13,49,21.00
2019,06,26,13,50,21.00
2019,06,26,13,51,21.10
2019,06,26,13,52,21.10
2019,06,26,13,53,21.20
2019,06,26,13,54,21.30
2019,06,26,13,55,21.40
2019,06,26,13,56,21.40
2019,06,26,13,57,21.60
2019,06,26,13,58,21.70
2019,06,26,13,59,21.80
2019,06,26,14,00,21.80
2019,06,26,14,01,22.00
2019,06,26,14,02,22.00
2019,06,26,14,03,22.10
2019,06,26,14,04,22.10
2019,06,26,14,05,22.00
2019,06,26,14,06,22.00
2019,06,26,14,07,21.90
2019,06,26,14,08,21.80
2019,06,26,14,09,21.80
2019,06,26,14,10,21.80
2019,06,26,14,11,21.90
2019,06,26,14,12,21.90
2019,06,26,14,13,21.90
2019,06,26,14,14,21.80
2019,06,26,14,15,21.80
2019,06,26,14,16,21.80
2019,06,26,14,17,21.80
2019,06,26,14,18,21.80
2019,06,26,14,19,21.80
2019,06,26,14,20,21.80
2019,06,26,14,21,21.80
2019,06,26,14,22,21.80
2019,06,26,14,23,21.80
2019,06,26,14,24,21.80
2019,06,26,14,25,21.80
2019,06,26,14,26,21.80
2019,06,26,14,27,21.80
2019,06,26,14,28,21.80
2019,06,26,14,29,21.80
2019,06,26,14,30,21.90
2019,06,26,14,31,21.90
2019,06,26,14,32,21.90
2019,06,26,14,33,22.00
2019,06,26,14,34,22.10
2019,06,26,14,35,22.20
2019,06,26,14,36,22.20
2019,06,26,14,37,22.30
2019,06,26,14,38,22.30
2019,06,26,14,39,22.30
2019,06,26,14,40,22.30
2019,06,26,14,41,22.30
2019,06,26,14,42,22.30
2019,06,26,14,43,22.30
2019,06,26,14,44,22.30
2019,06,26,14,45,22.20
2019,06,26,14,46,22.20
2019,06,26,14,47,22.20
2019,06,26,14,48,22.30
2019,06,26,14,49,22.30
2019,06,26,14,50,22.30
2019,06,26,14,51,22.30
2019,06,26,14,52,22.30
2019,06,26,14,53,22.20
2019,06,26,14,54,22.20
2019,06,26,14,55,22.20
2019,06,26,14,56,22.30
2019,06,26,14,57,22.40
2019,06,26,14,58,22.50
2019,06,26,14,59,22.50
2019,06,26,15,00,22.60
2019,06,26,15,01,22.60
2019,06,26,15,02,22.50
2019,06,26,15,03,22.40
2019,06,26,15,04,22.40
2019,06,26,15,05,22.50
2019,06,26,15,06,22.50
2019,06,26,15,07,22.60
2019,06,26,15,08,22.60
2019,06,26,15,09,22.60
2019,06,26,15,10,22.50
2019,06,26,15,11,22.50
2019,06,26,15,12,22.40
2019,06,26,15,13,22.40
2019,06,26,15,14,22.40
2019,06,26,15,15,22.40
2019,06,26,15,16,22.50
2019,06,26,15,17,22.60
2019,06,26,15,18,22.60
2019,06,26,15,19,22.70
2019,06,26,15,20,22.70
2019,06,26,15,21,22.80
2019,06,26,15,22,22.80
2019,06,26,15,23,22.80
2019,06,26,15,24,22.80
2019,06,26,15,25,22.70
2019,06,26,15,26,22.70
2019,06,26,15,27,22.80
2019,06,26,15,28,22.80
2019,06,26,15,29,22.90
2019,06,26,15,30,22.90
2019,06,26,15,31,23.00
2019,06,26,15,32,23.10
2019,06,26,15,33,23.10
2019,06,26,15,34,23.10
2019,06,26,15,35,23.10
2019,06,26,15,36,23.10
2019,06,26,15,37,23.20
2019,06,26,15,38,23.30
2019,06,26,15,39,23.30
2019,06,26,15,40,23.30
2019,06,26,15,41,23.20
2019,06,26,15,42,23.20
2019,06,26,15,43,23.20
2019,06,26,15,44,23.20
2019,06,26,15,45,23.20
2019,06,26,15,46,23.10
2019,06,26,15,47,23.20
2019,06,26,15,48,23.30
2019,06,26,15,49,23.30
2019,06,26,15,50,23.40
2019,06,26,15,51,23.50
2019,06,26,15,52,23.50
2019,06,26,15,53,23.50
2019,06,26,15,54,23.50
2019,06,26,15,55,23.50
2019,06,26,15,56,23.40
2019,06,26,15,57,23.40
2019,06,26,15,58,23.40
2019,06,26,15,59,23.40
2019,06,26,16,00,23.30
2019,06,26,16,01,23.30
2019,06,26,16,02,23.30
2019,06,26,16,03,23.30
2019,06,26,16,04,23.30
2019,06,26,16,05,23.20
2019,06,26,16,06,23.20
2019,06,26,16,07,23.20
2019,06,26,16,08,23.30
2019,06,26,16,09,23.30
2019,06,26,16,10,23.30
2019,06,26,16,11,23.20
2019,06,26,16,12,23.10
2019,06,26,16,13,23.10
2019,06,26,16,14,23.10
2019,06,26,16,15,23.00
2019,06,26,16,16,23.00
2019,06,26,16,17,22.90
2019,06,26,16,18,22.90
2019,06,26,16,19,22.90
2019,06,26,16,20,22.90
2019,06,26,16,21,22.90
2019,06,26,16,22,22.80
2019,06,26,16,23,22.80
2019,06,26,16,24,22.70
2019,06,26,16,25,22.70
2019,06,26,16,26,22.70
2019,06,26,16,27,22.60
2019,06,26,16,28,22.60
2019,06,26,16,29,22.60
2019,06,26,16,30,22.50
2019,06,26,16,31,22.50
2019,06,26,16,32,22.40
2019,06,26,16,33,22.20
2019,06,26,16,34,21.80
2019,06,26,16,35,21.40
2019,06,26,16,36,21.20
2019,06,26,16,37,21.00
2019,06,26,16,38,20.90
2019,06,26,16,39,20.90
2019,06,26,16,40,20.90
2019,06,26,16,41,20.90
2019,06,26,16,42,20.90
2019,06,26,16,43,20.80
2019,06,26,16,44,19.90
2019,06,26,16,45,19.60
2019,06,26,16,46,19.40
2019,06,26,16,47,19.20
2019,06,26,16,48,19.10
2019,06,26,16,49,18.90
2019,06,26,16,50,18.90
2019,06,26,16,51,18.80
2019,06,26,16,52,18.70
2019,06,26,16,53,18.60
2019,06,26,16,54,18.60
2019,06,26,16,55,18.50
2019,06,26,16,56,18.40
2019,06,26,16,57,18.40
2019,06,26,16,58,18.40
2019,06,26,16,59,18.40
2019,06,26,17,00,18.40
2019,06,26,17,01,18.40
2019,06,26,17,02,18.50
2019,06,26,17,03,18.50
2019,06,26,17,04,18.60
2019,06,26,17,05,18.60
2019,06,26,17,06,18.60
2019,06,26,17,07,18.40
2019,06,26,17,08,18.30
2019,06,26,17,09,18.10
2019,06,26,17,10,18.00
2019,06,26,17,11,18.00
2019,06,26,17,12,18.00
2019,06,26,17,13,18.00
2019,06,26,17,14,17.90
2019,06,26,17,15,17.90
2019,06,26,17,16,17.90
2019,06,26,17,17,17.80
2019,06,26,17,18,17.80
2019,06,26,17,19,17.80